Weather History for Crane Lake, MN

Change the Weather History Date:

Saturday, July 6, 2013

  Actual Average Record
Temperature  
Mean Temperature 68 °F -  
Max Temperature 80 °F 74 °F 87 °F (2003)
Min Temperature 55 °F 52 °F 39 °F (1997)
Cooling Degree Days 2    
Growing Degree Days 18 (Base 50)    
Moisture  
Dew Point 65 °F    
Average Humidity 93    
Maximum Humidity 100    
Minimum Humidity 70    
Precipitation  
Precipitation 0.43 in - - ()
Sea Level Pressure  
Sea Level Pressure 29.86 in    
Wind  
Wind Speed 1 mph (SSW)    
Max Wind Speed 5 mph    
Max Gust Speed -    
Visibility 6 miles    
Events Fog , Rain , Thunderstorm    
Averages and records for this station are not official NWS values.
T = Trace of Precipitation, MM = Missing Value Source: NWS Daily Summary

Daily Weather History Graph

Daily Weather History Graph

Search for Another Location

Airport:

Trip Planner

Search our weather history database for the weather conditions in past years. The results will help you decide how hot, cold, wet, or windy it might be!

Date:

Astronomy

Jul. 06, 2013 Rise Set
Actual Time 5:16 AM CDT 9:12 PM CDT
Civil Twilight 4:36 AM CDT 9:52 PM CDT
Nautical Twilight 3:39 AM CDT 10:48 PM CDT
Astronomical Twilight 2:09 AM CDT 12:17 AM CDT
Moon 4:07 AM CDT (7/6) 7:48 PM CDT (7/6)
Length of Visible Light 17h 16m
Length of Day
15h 55m
Waning Crescent, 2% of the Moon is Illuminated
Jul 6
Waning Crescent
Jul 8
New
Jul 15
First Quarter
Jul 22
Full
Jul 29
Last Quarter

Hourly Weather History & Observations

Time (CDT) Temp. Heat Index Dew Point Humidity Pressure Visibility Wind Dir Wind Speed Gust Speed Precip Events Conditions
12:11 AM 66.2 °F - 62.6 °F 88% 29.79 in 10.0 mi Calm Calm - N/A Rain Light Rain
12:32 AM 64.4 °F - 60.8 °F 88% 29.80 in 10.0 mi Calm Calm - N/A Thunderstorm Scattered Clouds
12:51 AM 62.6 °F - 60.8 °F 94% 29.80 in 10.0 mi SSE 3.5 mph - N/A   Clear
1:11 AM 64.4 °F - 62.6 °F 94% 29.80 in 10.0 mi South 4.6 mph - N/A   Clear
1:31 AM 64.4 °F - 62.6 °F 94% 29.80 in 10.0 mi South 3.5 mph - N/A   Clear
1:51 AM 64.4 °F - 62.6 °F 94% 29.80 in 10.0 mi Calm Calm - N/A   Clear
2:11 AM 62.6 °F - 60.8 °F 94% 29.80 in 10.0 mi Calm Calm - N/A   Clear
2:31 AM 62.6 °F - 60.8 °F 94% 29.80 in 7.0 mi Calm Calm - N/A   Clear
2:52 AM 60.8 °F - 59.0 °F 94% 29.80 in 5.0 mi Calm Calm - N/A   Clear
3:11 AM 60.8 °F - 57.2 °F 88% 29.81 in 7.0 mi Calm Calm - N/A   Clear
3:31 AM 59.0 °F - 57.2 °F 94% 29.81 in 4.0 mi Calm Calm - N/A   Clear
3:52 AM 57.2 °F - 55.4 °F 94% 29.81 in 7.0 mi Calm Calm - N/A   Clear
4:11 AM 57.2 °F - 55.4 °F 94% 29.82 in 2.0 mi Calm Calm - N/A   Clear
4:32 AM 57.2 °F - 55.4 °F 94% 29.82 in 3.0 mi Calm Calm - N/A   Clear
4:52 AM 57.2 °F - 55.4 °F 94% 29.82 in 5.0 mi Calm Calm - N/A   Clear
5:11 AM 55.4 °F - 53.6 °F 94% 29.83 in 5.0 mi Calm Calm - N/A   Clear
5:32 AM 55.4 °F - 53.6 °F 94% 29.84 in 5.0 mi Calm Calm - N/A   Clear
5:52 AM 55.4 °F - 53.6 °F 94% 29.84 in 3.0 mi Calm Calm - N/A   Clear
6:11 AM 55.4 °F - 53.6 °F 94% 29.84 in 5.0 mi Calm Calm - N/A   Clear
6:31 AM 55.4 °F - 55.4 °F 100% 29.83 in 5.0 mi Calm Calm - N/A   Clear
6:53 AM 60.8 °F - 59.0 °F 94% 29.84 in 5.0 mi Calm Calm - N/A   Clear
7:12 AM 64.4 °F - 64.4 °F 100% 29.84 in 10.0 mi Calm Calm - N/A   Clear
7:32 AM 66.2 °F - 64.4 °F 94% 29.84 in 10.0 mi Calm Calm - N/A   Clear
7:51 AM 68.0 °F - 66.2 °F 94% 29.84 in 10.0 mi Calm Calm - N/A   Clear
8:11 AM 68.0 °F - 66.2 °F 94% 29.85 in 7.0 mi Calm Calm - N/A   Clear
8:31 AM 69.8 °F - 66.2 °F 88% 29.85 in 10.0 mi Calm Calm - N/A   Clear
8:51 AM 69.8 °F - 66.2 °F 88% 29.85 in 10.0 mi Calm Calm - N/A   Clear
9:11 AM 71.6 °F - 66.2 °F 83% 29.86 in 10.0 mi Calm Calm - N/A   Clear
9:31 AM 71.6 °F - 68.0 °F 88% 29.86 in 10.0 mi Calm Calm - N/A   Clear
9:51 AM 73.4 °F - 68.0 °F 83% 29.86 in 10.0 mi Calm Calm - N/A   Clear
10:11 AM 73.4 °F - 68.0 °F 83% 29.87 in 10.0 mi Calm Calm - N/A   Clear
10:31 AM 73.4 °F - 69.8 °F 88% 29.87 in 10.0 mi Calm Calm - N/A   Clear
10:52 AM 75.2 °F - 69.8 °F 83% 29.87 in 10.0 mi Calm Calm - N/A   Clear
11:12 AM 75.2 °F - 71.6 °F 89% 29.87 in 10.0 mi Calm Calm - N/A   Clear
11:31 AM 78.8 °F - 75.2 °F 89% 29.87 in 10.0 mi Calm Calm - N/A   Clear
11:51 AM 80.6 °F 83.9 °F 69.8 °F 70% 29.87 in 10.0 mi Calm Calm - N/A   Clear
12:11 PM 80.6 °F 87.1 °F 77.0 °F 89% 29.87 in 10.0 mi Calm Calm - N/A   Scattered Clouds
12:31 PM 80.6 °F 87.1 °F 77.0 °F 89% 29.87 in 10.0 mi Calm Calm - N/A   Mostly Cloudy
12:51 PM 78.8 °F - 77.0 °F 94% 29.87 in 10.0 mi Calm Calm - N/A   Mostly Cloudy
1:11 PM 78.8 °F - 75.2 °F 89% 29.87 in 10.0 mi Calm Calm - N/A Rain Light Rain
1:31 PM 77.0 °F - 73.4 °F 89% 29.87 in 10.0 mi Calm Calm - N/A   Mostly Cloudy
1:51 PM 78.8 °F - 75.2 °F 89% 29.86 in 10.0 mi North 4.6 mph - N/A   Scattered Clouds
2:11 PM 77.0 °F - 73.4 °F 89% 29.86 in 10.0 mi SSW 4.6 mph - N/A   Mostly Cloudy
2:32 PM 69.8 °F - 66.2 °F 88% 29.87 in 1.5 mi NW 3.5 mph - 0.14 in Rain Heavy Rain
2:51 PM 66.2 °F - 64.4 °F 94% 29.88 in 1.0 mi Calm Calm - N/A Rain , Thunderstorm Heavy Thunderstorms and Rain
3:11 PM 66.2 °F - 64.4 °F 94% 29.88 in 3.0 mi Calm Calm - 0.04 in Rain , Thunderstorm Thunderstorms and Rain
3:31 PM 66.2 °F - 66.2 °F 100% 29.89 in 7.0 mi Calm Calm - 0.05 in Rain , Thunderstorm Light Thunderstorms and Rain
3:51 PM 69.8 °F - 66.2 °F 88% 29.89 in 5.0 mi Calm Calm - 0.05 in Rain Light Rain
4:11 PM 69.8 °F - 68.0 °F 94% 29.87 in 7.0 mi Calm Calm - N/A   Mostly Cloudy
4:31 PM 69.8 °F - 69.8 °F 100% 29.87 in 7.0 mi Calm Calm - N/A   Overcast
4:50 PM 69.8 °F - 68.0 °F 94% 29.87 in 4.0 mi Calm Calm - N/A Rain Rain
5:11 PM 69.8 °F - 66.2 °F 88% 29.88 in 7.0 mi Calm Calm - 0.01 in Rain Light Rain
5:32 PM 68.0 °F - 66.2 °F 94% 29.88 in 1.0 mi Calm Calm - 0.10 in Rain Heavy Rain
5:51 PM 66.2 °F - 66.2 °F 100% 29.89 in 2.0 mi Calm Calm - N/A Rain Rain
6:11 PM 66.2 °F - 66.2 °F 100% 29.88 in 1.0 mi Calm Calm - 0.09 in Rain , Thunderstorm Heavy Thunderstorms and Rain
6:31 PM 66.2 °F - 66.2 °F 100% 29.89 in 7.0 mi Calm Calm - 0.14 in   Mostly Cloudy
6:51 PM 66.2 °F - 66.2 °F 100% 29.88 in 5.0 mi Calm Calm - 0.14 in   Overcast
7:11 PM 66.2 °F - 66.2 °F 100% 29.89 in 4.0 mi Calm Calm - N/A Rain Rain
7:31 PM 66.2 °F - 66.2 °F 100% 29.88 in 1.5 mi Calm Calm - N/A Rain Light Rain
7:52 PM 66.2 °F - 66.2 °F 100% 29.88 in 4.0 mi Calm Calm - N/A   Overcast
8:11 PM 66.2 °F - 66.2 °F 100% 29.88 in 4.0 mi Calm Calm - N/A   Overcast
8:31 PM 66.2 °F - 66.2 °F 100% 29.87 in 2.0 mi Calm Calm - N/A   Overcast
8:51 PM 66.2 °F - 66.2 °F 100% 29.87 in 3.0 mi Calm Calm - N/A   Overcast
9:11 PM 66.2 °F - 64.4 °F 94% 29.87 in 0.8 mi Calm Calm - N/A   Overcast
9:31 PM 66.2 °F - 64.4 °F 94% 29.88 in 1.8 mi Calm Calm - N/A   Overcast
9:51 PM 66.2 °F - 64.4 °F 94% 29.89 in 1.8 mi Calm Calm - N/A   Overcast
10:11 PM 66.2 °F - 64.4 °F 94% 29.89 in 0.2 mi Calm Calm - N/A Fog Fog
10:32 PM 66.2 °F - 64.4 °F 94% 29.89 in 0.2 mi Calm Calm - N/A Fog Fog
10:51 PM 64.4 °F - 62.6 °F 94% 29.89 in 0.2 mi Calm Calm - N/A Fog Fog
11:11 PM 64.4 °F - 62.6 °F 94% 29.89 in 0.2 mi Calm Calm - N/A Fog Fog
11:31 PM 64.4 °F - 62.6 °F 94% 29.88 in 0.5 mi Calm Calm - N/A Fog Fog
11:51 PM 64.4 °F - 62.6 °F 94% 29.89 in 1.2 mi Calm Calm - N/A   Overcast